[ ตารางข้อมูล ] [ Min-Max ] [ วันนี้2 ] [ วันนี้4 ] [ เทียบ-A 3วัน ] [ เทียบ-B 4วัน ]   

วันนี้4   [ ◀ ช่วงเก่ากว่า ] [ ช่วงที่ 6 ] [ ช่วงใหม่กว่า ▶ ] [ ล่าสุด ]    [ 3 ชั่วโมง ] [ 6 ชั่วโมง ] [ 12 ชั่วโมง ] [ 24 ชั่วโมง ]   วันนี้4

อุณภูมิในตู้ Knockdown4529  ราย 24 ชั่วโมง  ที่วัดได้ ในช่วงวันเวลา 25/08/2026 (08:45) ถึง 26/08/2026 (08:45) 
ความชื้นในตู้ Knockdown4529  ราย 24 ชั่วโมง  ที่วัดได้ ในช่วงวันเวลา 25/08/2026 (08:45) ถึง 26/08/2026 (08:45) 
การใช้ไฟฟ้าในตู้ Knockdown4529  ราย 24 ชั่วโมง  ที่วัดได้ ในช่วงวันเวลา 25/08/2026 (08:45) ถึง 26/08/2026 (08:45) 

  DS18B20SHTC3PZEM-004TWiFi 
IDDate d/m/Y & Timedata1
สูง
data2
ต่ำ
data3
นอก
temp
pcb
hum
pcb
VoltAmpWattrssiTime
 16112  26/08/2026 08:44:24  28.8  28.0  30.1  29.9  64.3  233.7  0.04  4.5  -87  08:44 
 16111  26/08/2026 08:39:34  28.7  27.9  30.0  29.7  64.5  233.9  0.04  4.5  -84  08:39 
 16110  26/08/2026 08:34:51  28.6  27.8  29.5  29.7  64.9  232.3  0.04  4.5  -83  08:34 
 16109  26/08/2026 08:30:07  28.4  27.8  29.5  29.6  64.9  233.1  0.04  4.6  -89  08:30 
 16108  26/08/2026 08:25:24  28.2  27.7  29.5  29.5  64.9  233.4  0.04  4.5  -81  08:25 
 16107  26/08/2026 08:20:40  28.1  27.6  29.2  29.3  65.1  232.8  0.04  4.5  -82  08:20 
 16106  26/08/2026 08:15:57  28.0  27.6  29.1  29.2  65.3  233.7  0.04  4.5  -83  08:15 
 16105  26/08/2026 08:11:12  27.9  27.6  29.0  29.1  65.5  232.6  0.04  4.5  -86  08:11 
 16104  26/08/2026 08:06:27  27.8  27.6  28.8  28.9  65.7  233.0  0.04  4.5  -87  08:06 
 16103  26/08/2026 08:01:43  27.7  27.5  28.6  28.7  65.9  232.9  0.04  4.5  -90  08:01 
 16102  26/08/2026 07:57:00  27.6  27.5  28.3  28.7  66.2  233.9  0.04  4.5  -89  07:57 
 16101  26/08/2026 07:52:16  27.6  27.4  28.1  28.6  66.2  234.2  0.04  4.5  -91  07:52 
 16100  26/08/2026 07:47:32  27.5  27.4  27.9  28.7  66.1  231.8  0.04  4.5  -83  07:47 
 16099  26/08/2026 07:42:47  27.4  27.4  27.7  28.6  66.2  234.7  0.04  4.5  -84  07:42 
 16098  26/08/2026 07:38:05  27.4  27.4  27.4  28.4  66.4  234.5  0.04  4.5  -83  07:38 
 16097  26/08/2026 07:33:20  27.4  27.4  27.1  28.4  66.4  234.2  0.04  4.5  -85  07:33 
 16096  26/08/2026 07:28:34  27.3  27.4  26.8  28.6  66.4  233.9  0.04  4.5  -90  07:28 
 16095  26/08/2026 07:23:51  27.3  27.4  26.5  28.5  66.5  234.1  0.04  4.5  -85  07:23 
 16094  26/08/2026 07:19:07  27.3  27.3  26.4  28.4  66.6  234.7  0.04  4.5  -83  07:19 
 16093  26/08/2026 07:14:24  27.3  27.3  26.0  28.4  66.6  234.8  0.04  4.5  -83  07:14 
 16092  26/08/2026 07:09:41  27.3  27.3  25.8  28.4  66.7  234.5  0.04  4.5  -83  07:09 
 16091  26/08/2026 07:04:55  27.3  27.3  25.7  28.2  66.7  234.4  0.04  4.5  -84  07:04 
 16090  26/08/2026 07:00:10  27.2  27.4  25.5  28.4  66.8  233.4  0.04  4.5  -80  07:00 
 16089  26/08/2026 06:55:27  27.3  27.4  25.3  28.5  66.8  234.7  0.04  4.5  -79  06:55 

Data every 5 minute.


ใช้เวลาประมวลผล 0.02242 วินาที